Location: Caltech
(34.1382°N, 118.1253°W)
Time: 01:33:44
(UTC-07:00)

Iridium 94 - Visible Passes

Search period start: 05 May 2016 00:00
Search period end: 15 May 2016 00:00
Orbit: 776 x 779 km, 86.4° (Epoch: 04 May)

Date Brightness Start Highest point End Pass type
(mag) Time Alt. Az. Time Alt. Az. Time Alt. Az.
05 May 7.6 01:32:44 10° NNE 01:34:56 23° NNE 01:34:56 23° NNE visible
05 May 7.7 03:14:21 10° NW 03:15:24 14° NW 03:15:24 14° NW visible
06 May 8.0 01:00:04 10° NNE 01:01:27 15° NE 01:01:27 15° NE visible
06 May 7.4 02:39:55 10° NNW 02:41:55 21° NW 02:41:55 21° NW visible
07 May 7.3 02:06:04 10° N 02:08:25 27° N 02:08:25 27° N visible
08 May 7.4 01:32:36 10° N 01:34:57 26° NNE 01:34:57 26° NNE visible
09 May 7.8 00:59:34 10° NNE 01:01:29 20° NE 01:01:29 20° NE visible
09 May 7.7 02:40:27 10° NNW 02:41:57 17° NW 02:41:57 17° NW visible
10 May 8.1 00:27:16 10° NE 00:28:00 12° NE 00:28:00 12° NE visible
10 May 7.4 02:06:18 10° NNW 02:08:29 24° NNW 02:08:29 24° NNW visible
11 May 7.3 01:32:37 10° N 01:35:01 28° N 01:35:01 28° N visible
12 May 7.5 00:59:18 10° NNE 01:01:34 24° NNE 01:01:34 24° NNE visible
12 May 7.9 02:41:20 10° NW 02:42:02 12° NW 02:42:02 12° NW visible
13 May 7.9 00:26:29 10° NNE 00:28:07 17° NE 00:28:07 17° NE visible
13 May 7.6 02:06:42 10° NNW 02:08:35 20° NW 02:08:35 20° NW visible
14 May 7.3 01:32:46 10° N 01:35:08 27° NNW 01:35:08 27° NNW visible
